Regional Weather Roundup
Issued by NWS

Home | Current Version | Previous Version | Graphics & Text | Print | Product List | Glossary On
Versions: 1 2 3 4 5 6 7 8 9 10 11 12 13 14 15 16 17 18 19 20 21 22 23 24 25 26 27 28 29 30 31 32 33 34 35 36 37 38 39 40 41 42 43 44 45 46 47 48 49 50
000
ASUS44 KMEG 261300
RWRTN
TENNESSEE HOURLY STATE WEATHER ROUNDUP
NATIONAL WEATHER SERVICE MEMPHIS TN
800 AM CDT WED APR 26 2017

TNZ002-004-019-021-049-052-054-088>092-261400-
WEST TENNESSEE

CITY           SKY/WX    TMP DP  RH WIND       PRES   REMARKS
MEMPHIS INTL   MOSUNNY   67  60  78 S14       29.66F
NWS MEMPHIS      N/A     66 N/A N/A MISG        N/A
JACKSON        SUNNY     66  59  78 S10       29.69R
DYERSBURG      SUNNY     67  59  75 S8        29.65F
PARIS          SUNNY     64  55  72 S9        29.68S
$$

TNZ008-025-027-028-033-062-065-066-261400-
NORTH MIDDLE TENNESSEE

CITY           SKY/WX    TMP DP  RH WIND       PRES   REMARKS
NASHVILLE      MOSUNNY   65  58  78 S10       29.77R
CLARKSVILLE    SUNNY     66  57  72 S6        29.70F
SMYRNA         SUNNY     63  58  83 S7        29.79R
CROSSVILLE     SUNNY     63  55  75 CALM      29.85R
$$

TNZ061-075-076-078-094-096-097-261400-
SOUTH MIDDLE TENNESSEE

CITY           SKY/WX    TMP DP  RH WIND       PRES   REMARKS
TULLAHOMA      SUNNY     61  57  88 S5        29.82R
WINCHESTER     SUNNY     66  57  72 S3        29.82S
COLUMBIA       SUNNY     66  66 100 S7        29.75S
SHELBYVILLE    SUNNY     64  61  88 S6        29.81R
$$

TNZ017-018-042-046-047-261400-
NORTHEAST TENNESSEE

CITY           SKY/WX    TMP DP  RH WIND       PRES   REMARKS
TRI CITIES     FOG       53  53 100 CALM      29.89R VSB 1/8
$$

TNZ012-013-036-069-073-074-261400-
CENTRAL EAST TENNESSEE

CITY           SKY/WX    TMP DP  RH WIND       PRES   REMARKS
KNOXVILLE      MOSUNNY   60  56  86 E5        29.85R
OAK RIDGE      CLOUDY    54  53  97 CALM      29.86R FOG
GATLINBURG     SUNNY     55  54  94 CALM      29.87R
$$

TNZ083-085-099-261400-
SOUTHEAST TENNESSEE

CITY           SKY/WX    TMP DP  RH WIND       PRES   REMARKS
CHATTANOOGA    MOSUNNY   63  57  81 CALM      29.84R
$$

SKY/WX REPORTED AS FAIR MEANS FEW OR NO CLOUDS BELOW
12 THOUSAND FEET.





USA.gov is the U.S. government's official web portal to all federal, state and local government web resources and services.